GW3796 Weather Reports


time (UTC)temp
C
wind
direction
speed
KPH
gust
KPH
rain 1hr
cm
rain 24hr
cm
rain mn
cm
humidity
%
barometer
mb
20260506153050 11 55 3.2 8.0 0.20 0.20 0.20 86 1014.4
20260506152049 11 28 1.6 3.2 0.20 0.20 0.20 85 1014.3
20260506151024 11 227 3.2 4.8 0.15 0.15 0.15 83 1014.6
20260506150021 11 235 1.6 4.8 0.00 0.00 0.00 82 1016.2
20260506145019 11 253 1.6 3.2 0.00 0.00 0.00 81 1015.4
20260506144028 11 38 1.6 3.2 0.00 0.00 0.00 81 1015.3
20260506143029 11 360 3.2 8.0 0.00 0.00 0.00 81 1013.6
20260506142025 11 56 3.2 8.0 0.00 0.00 0.00 80 1013.8
20260506141022 11 19 3.2 4.8 0.00 0.00 0.00 79 1014.7
20260506140020 11 69 3.2 8.0 0.00 0.00 0.00 79 1014.3
20260506135054 11 175 3.2 6.4 0.00 0.00 0.00 80 1014.3
20260506134026 11 356 3.2 9.7 0.00 0.00 0.00 80 1013.6
20260506133024 11 285 4.8 11.3 0.00 0.00 0.00 80 1013.3
20260506132025 11 218 3.2 8.0 0.00 0.00 0.00 80 1013.3
20260506131022 11 222 3.2 8.0 0.00 0.00 0.00 80 1013.1
20260506130019 11 46 3.2 8.0 0.00 0.00 0.00 80 1013.0
20260506125027 11 185 4.8 9.7 0.00 0.00 0.00 80 1012.7
20260506124046 11 328 3.2 9.7 0.00 0.00 0.00 79 1012.9
20260506123026 11 185 3.2 11.3 0.00 0.00 0.00 79 1013.0
20260506122023 11 115 3.2 11.3 0.00 0.00 0.00 78 1012.8
20260506121040 12 153 3.2 8.0 0.00 0.00 0.00 77 1012.7
20260506120028 12 270 3.2 6.4 0.00 0.00 0.00 75 1012.7
20260506115026 12 230 3.2 6.4 0.00 0.00 0.00 74 1012.6
20260506114024 12 271 3.2 4.8 0.00 0.00 0.00 74 1012.5
20260506113022 12 224 3.2 8.0 0.00 0.00 0.00 73 1012.3
20260506112022 12 35 4.8 9.7 0.00 0.00 0.00 73 1012.3
20260506111020 12 55 3.2 8.0 0.00 0.00 0.00 73 1011.8
20260506110027 12 282 3.2 8.0 0.00 0.00 0.00 73 1011.7
20260506105025 13 124 3.2 6.4 0.00 0.00 0.00 73 1011.7
20260506104023 13 149 3.2 8.0 0.00 0.00 0.00 73 1011.6
20260506103021 13 47 4.8 9.7 0.00 0.00 0.00 73 1011.6
20260506102021 13 154 3.2 6.4 0.00 0.00 0.00 73 1011.2
20260506101018 13 220 3.2 8.0 0.00 0.00 0.00 74 1011.2
20260506100032 13 242 3.2 4.8 0.00 0.00 0.00 74 1011.1
20260506095023 13 216 1.6 4.8 0.00 0.00 0.00 74 1010.9
20260506094041 13 47 3.2 6.4 0.00 0.00 0.00 74 1010.9
20260506093020 13 303 3.2 6.4 0.00 0.00 0.00 73 1011.1
20260506092040 13 265 3.2 8.0 0.00 0.00 0.00 73 1010.8
20260506091027 13 19 4.8 6.4 0.00 0.00 0.00 74 1010.8
20260506090024 13 249 3.2 4.8 0.00 0.00 0.00 74 1010.8
20260506085103 14 38 1.6 4.8 0.00 0.00 0.00 74 1010.7
20260506084025 14 268 3.2 6.4 0.00 0.00 0.00 74 1010.6
20260506083022 14 136 1.6 6.4 0.00 0.00 0.00 74 1010.4
20260506082019 14 233 1.6 4.8 0.00 0.00 0.00 74 1010.3
20260506081025 14 348 3.2 6.4 0.00 0.00 0.00 74 1010.3
20260506073021 14 33 1.6 6.4 0.00 0.00 0.00 74 1010.2
20260506072026 15 355 3.2 6.4 0.00 0.00 0.00 74 1009.9
20260506071024 15 357 3.2 6.4 0.00 0.00 0.00 74 1010.0
20260506062025 15 31 3.2 4.8 0.00 0.00 0.00 76 1010.0
20260506061034 15 101 3.2 6.4 0.00 0.00 0.00 76 1009.7
20260506051021 16 39 4.8 6.4 0.00 0.00 0.00 75 1010.0
20260506045023 16 14 4.8 8.0 0.00 0.00 0.00 75 1010.0
20260506044041 16 354 4.8 8.0 0.00 0.00 0.00 74 1009.8
20260506043025 16 39 4.8 9.7 0.00 0.00 0.00 74 1010.0
20260506042042 17 246 4.8 6.4 0.00 0.00 0.00 74 1009.9
20260506041023 17 187 3.2 6.4 0.00 0.00 0.00 74 1009.9
20260506040038 17 305 4.8 11.3 0.00 0.00 0.00 73 1009.6
20260506035022 17 192 4.8 9.7 0.00 0.00 0.00 73 1009.6
20260506034039 17 7 3.2 9.7 0.00 0.00 0.00 73 1009.4
20260506033023 18 128 4.8 8.0 0.00 0.00 0.00 71 1009.0
20260506032042 18 45 3.2 6.4 0.00 0.00 0.00 72 1008.8
20260506031039 18 50 3.2 8.0 0.00 0.00 0.00 72 1008.7
20260506030044 19 32 3.2 8.0 0.00 0.00 0.00 71 1008.5
20260506025021 19 184 3.2 6.4 0.00 0.00 0.00 70 1008.5
20260506024018 19 142 3.2 6.4 0.00 0.00 0.00 70 1008.1
20260506023022 20 313 3.2 6.4 0.00 0.00 0.00 69 1008.0
20260506022051 20 112 3.2 6.4 0.00 0.00 0.00 69 1007.9
20260506021049 20 61 3.2 8.0 0.00 0.00 0.00 69 1007.7
20260506020043 20 291 4.8 11.3 0.00 0.00 0.00 68 1007.6
20260506015025 20 336 1.6 6.4 0.00 0.00 0.00 69 1007.1
20260506014023 20 225 3.2 4.8 0.00 0.00 0.00 68 1006.8
20260506013020 21 233 3.2 6.4 0.00 0.00 0.00 68 1006.8
20260506012019 21 18 3.2 6.4 0.00 0.00 0.00 68 1006.7
20260506011028 21 7 3.2 6.4 0.00 0.00 0.00 67 1006.6
20260506010026 22 341 3.2 8.0 0.00 0.00 0.00 66 1006.3
20260506005019 22 131 3.2 9.7 0.00 0.00 0.00 67 1006.0
20260506004022 22 16 1.6 4.8 0.00 0.00 0.00 66 1006.1
20260506003020 22 36 3.2 6.4 0.00 0.00 0.00 65 1005.6
20260506002049 23 274 4.8 9.7 0.00 0.00 0.00 64 1005.8
20260506001026 23 296 4.8 9.7 0.00 0.00 0.00 63 1005.3
20260506000041 25 179 6.4 11.3 0.00 0.00 0.00 61 1005.5
20260505235025 25 213 4.8 9.7 0.00 0.00 0.00 59 1005.4
20260505234020 25 279 4.8 6.4 0.00 0.00 0.00 58 1005.4
20260505233058 26 181 4.8 12.9 0.00 0.00 0.00 58 1005.3
20260505232030 26 259 3.2 6.4 0.00 0.00 0.00 57 1005.3
20260505231105 27 285 4.8 8.0 0.00 0.00 0.00 55 1005.2
20260505230020 27 254 4.8 8.0 0.00 0.00 0.00 54 1005.2
20260505225021 28 186 4.8 6.4 0.00 0.00 0.00 54 1005.1
20260505224039 29 279 4.8 9.7 0.00 0.00 0.00 53 1004.9
20260505223028 30 269 4.8 6.4 0.00 0.00 0.00 52 1004.9
20260505222046 31 242 4.8 11.3 0.00 0.00 0.00 46 1004.7
20260505221024 31 238 3.2 6.4 0.00 0.00 0.00 45 1004.7
20260505220019 31 89 3.2 6.4 0.00 0.00 0.00 45 1004.4
20260505215020 32 236 4.8 8.0 0.00 0.00 0.00 42 1004.6
20260505214029 32 179 3.2 4.8 0.00 0.00 0.00 43 1004.8
20260505213027 31 223 4.8 9.7 0.00 0.00 0.00 44 1004.7
20260505212025 33 225 4.8 11.3 0.00 0.00 0.00 43 1004.7
20260505211023 33 211 6.4 11.3 0.00 0.00 0.00 43 1004.9
20260505210021 33 204 9.7 12.9 0.00 0.00 0.00 42 1004.9
20260505205018 33 222 6.4 12.9 0.00 0.00 0.00 43 1005.0
20260505204028 33 208 9.7 16.1 0.00 0.00 0.00 43 1005.1
20260505203026 33 188 8.0 11.3 0.00 0.00 0.00 45 1005.2
20260505202024 32 191 8.0 14.5 0.00 0.00 0.00 47 1005.2
20260505201022 32 251 6.4 11.3 0.00 0.00 0.00 47 1005.4
20260505200021 32 194 9.7 17.7 0.00 0.00 0.00 47 1005.5
20260505195030 32 194 9.7 17.7 0.00 0.00 0.00 46 1005.5
20260505194047 32 207 8.0 12.9 0.00 0.00 0.00 48 1005.5
20260505193026 32 202 9.7 14.5 0.00 0.00 0.00 50 1005.4
20260505192022 32 194 8.0 12.9 0.00 0.00 0.00 51 1005.5
20260505191020 31 194 9.7 14.5 0.00 0.00 0.00 52 1005.5
20260505190052 31 211 11.3 16.1 0.00 0.00 0.00 53 1005.4
20260505185029 30 172 9.7 19.3 0.00 0.00 0.00 54 1005.4
20260505184028 30 205 11.3 17.7 0.00 0.00 0.00 56 1005.4
20260505183023 30 197 6.4 11.3 0.00 0.00 0.00 57 1005.4
20260505182021 30 182 9.7 16.1 0.00 0.00 0.00 57 1005.5
20260505181019 30 183 8.0 16.1 0.00 0.00 0.00 59 1005.3
20260505180028 29 179 8.0 14.5 0.00 0.00 0.00 59 1005.5
20260505175030 28 171 12.9 20.9 0.00 0.00 0.00 60 1005.6
20260505174025 29 200 8.0 14.5 0.00 0.00 0.00 61 1005.6
20260505173022 29 176 11.3 16.1 0.00 0.00 0.00 60 1005.6
20260505172020 30 197 6.4 12.9 0.00 0.00 0.00 60 1005.7
20260505171028 28 163 9.7 20.9 0.00 0.00 0.00 61 1005.6
20260505170027 28 168 9.7 14.5 0.00 0.00 0.00 61 1005.7
20260505165027 28 157 6.4 12.9 0.00 0.00 0.00 62 1005.6
20260505164027 28 154 8.0 12.9 0.00 0.00 0.00 62 1005.6
20260505163021 27 173 9.7 16.1 0.00 0.00 0.00 64 1005.6
20260505162019 27 203 8.0 12.9 0.00 0.00 0.00 65 1005.5
20260505161027 27 193 8.0 12.9 0.00 0.00 0.00 64 1005.5